TITAN 3C TRANSTAGE R/B, 8751

Orbit data source: Space-Track

TITAN 3C TRANSTAGE R/B, 8751 is space debris in GEO originally from a launch on Mon, 15 Mar 1976 UTC launched from the Air Force Eastern Test Range (AFETR). Debris objects in space refer to the collection of defunct objects orbiting the Earth. Examples of debris include non-operational satellites, rocket bodies, and fragments generated from explosions, collisions, or faulty payload assembly.

Not visible in the next 10 days
Identifier
8751, 1976-023F
Orbit
GEO
Last TLE update
14 hours ago
Origin
Manufacturer
Martin Marietta
Mission
Spacecraft
Bus & Motor
TRANSTAGE, Unknown motor
Mass
~1,950 kg wet, ~1,950 kg dry
Launch date (UTC)
1976-03-15 (49 years ago)
Launch vehicle
Unknown
Launch site
Air Force Eastern Test Range (AFETR)
Object type
Payload
Rocket body
Debris
Shape & HBR
Cyl + 2 Nozzle, 4.6 m
Radar Cross Section
14.974 m², Large (>1 m²)

Expand to show TLE details & history

TLE from 14 hours ago
0 TITAN 3C TRANSTAGE R/B
1 08751U 76023F   25183.91057490 -.00000046  00000-0  00000-0 0  9994
2 08751  21.1425  47.1232 0122652  96.2611 179.7066  0.98324158179777
Epoch: 2025-07-02T21:51Z
TLE epoch observation values (Epoch: 2025-07-02T21:51:13.671Z)
Latitude
-21.05298°
Longitude
74.53728°
Altitude
36,870.79 km
Speed
3.017 km/s
True Right ascension
21h 34m 06s
True Declination
-21° 02' 02"
Sunlit
Object was in daylight at epoch
Visualization orbit readout
Latitude
17.51572°
Longitude
-76.41422°
Altitude
35,874.788 km
Speed
3.088 km/s
Apparent Right ascension
11h 31m 20s
Apparent Declination
10° 48' 57"
Sunlit
Object is in daylight
Visualization observer readout
Local Sidereal Time
23:39:44
Azimuth
2.668° NNE
Elevation
-39.23°
Doppler factor
1
Orbital elements
Apogee altitude
36,866.411 km
Perigee altitude
35,818.458 km
Semi-major axis
42,720.572 km
Eccentricity
0.01227
Inclination
21.1425°
RAAN
47.1232°
Arg. of periapsis
96.2611°
True anomaly
Unknown
Mean anomaly
179.7066°
Eccentric anomaly
Unknown
Mean motion
0.2458 °/min
Orbital period
1,464.59 mins
BSTAR
0
Loading historical data...
8751 neighbors
Loading maneuver chart data...
Loading SW <> Apogee altitude chart data...
Loading historical data...
Loading historical data...
Loading historical data...
Loading historical data...
Loading historical data...
Loading historical data...
Loading historical data...

TITAN 3C TRANSTAGE R/B Visibility

Observer location: undefined°, undefined°

TITAN 3C TRANSTAGE R/B is likely not visible in the next few days
Span
Click to sort rows by Start time (UTC) header in descending order
Start Az.
Max El. time (UTC)
Max El. Az.
Max El.
End time (UTC)
End Az.
|